Flag for Argentina Weather past 2 weeks in Tucumán, Tucumán, Argentina

Now
59 °F

Clear.


Feels Like: 57 °F
Forecast: 56 / 82 °F
Wind: 12 mph from West

Location: Tucuman Aerodrome

Current Time: Aug 31, 2014 at 6:27:56 AM

Latest Report: Aug 31, 2014 at 6:00 AM


Visibility: 10 mi

Pressure: 29.98 "Hg

Humidity: 72%

Dew point: 50 °F

Location of TucumánLocation

Historic Weather in Tucumán — Graph

°F

Tucumán temperature yesterday

Maximum temperature yesterday: 86 °F (at 4:00 PM)
Minimum temperature yesterday: 52 °F (at 7:00 AM)
Average temperature yesterday: 67 °F

Past Weeks' High & Low Weather Summary

 TemperatureHumidityPressure
High99 °F (Aug 23, 4:00 PM)82% (Aug 18, 4:00 AM)30.36 "Hg (Aug 18, 4:00 AM)
Low41 °F (Aug 27, 7:00 AM)24% (Aug 23, 2:00 PM)29.45 "Hg (Aug 23, 4:00 PM)
Average66 °F55%29.97 "Hg
* Reported Aug 16 5:00 AM — Aug 31 5:00 AM, Tucumán, Weather by CustomWeather, © 2014

Note: Actual official high and low records may vary slightly from our data, if they occured in-between our weather recording intervals... More about our weather records

Advertising

Tucumán weather history for previous 24 hours

 ConditionsComfort  
Time TempWeatherWind HumidityBarometerVisibility
5:00 AM
Aug 31
59 °FClear.9 mph72%29.95 "Hg10 mi
4:00 AM57 °FClear.9 mph77%29.95 "Hg10 mi
3:00 AM57 °FClear.12 mph77%29.95 "Hg10 mi
2:00 AM61 °FClear.7 mph72%29.95 "Hg10 mi
1:00 AM61 °FClear.9 mph77%29.95 "Hg10 mi
12:00 AM64 °FClear.9 mph68%29.92 "Hg10 mi
11:00 PM
Aug 30
66 °FClear.2 mph68%29.89 "Hg3 mi
10:00 PM68 °FClear.6 mph60%29.89 "Hg2 mi
9:00 PM73 °FClear.8 mph50%29.83 "Hg3 mi
8:00 PM73 °FClear.7 mph53%29.80 "Hg2 mi
7:00 PM79 °FClear.6 mph48%29.74 "Hg2 mi
6:00 PM84 °FClear.6 mph35%29.71 "Hg2 mi
5:00 PM86 °FClear.9 mph31%29.71 "Hg3 mi
4:00 PM86 °FClear.8 mph33%29.71 "Hg3 mi
3:00 PM82 °FClear.5 mph37%29.77 "Hg2 mi
2:00 PM79 °FClear.5 mph39%29.80 "Hg2 mi
1:00 PM77 °FClear.5 mph39%29.86 "Hg3 mi
12:00 PM73 °FClear.7 mph44%29.89 "Hg3 mi
11:00 AM70 °FClear.5 mph50%29.89 "Hg3 mi
10:00 AM64 °FClear.No wind56%29.92 "Hg3 mi
9:00 AM57 °FClear.9 mph63%29.89 "Hg4 mi
8:00 AM52 °FClear.7 mph77%29.89 "Hg3 mi
7:00 AM52 °FClear.9 mph77%29.86 "Hg4 mi
6:00 AM54 °FClear.7 mph72%29.86 "Hg4 mi
Weather by CustomWeather, © 2014

See weather overviewHow to use our weather pages